CAL4101 ZBAA-UUWW

Flight info

Callsign CAL4101
Flight time N/A
Altitude 38100
Route IDKEX5Y IDKEX B339 UDA Y684 GINOM/K0898F400 T631 LONTE N869 IMNUS R372 NH N992 KUMEP T796 ORTIM L158 APTAR T787 OTKOL T784 LARNO T291 URIDU L158 DIMGI DIMGI3B
Aircraft A359/H-SDE2E3GHIJ3J4J5LM1ORWXY/LB1D1

Departure

Time N/A
Airport Beijing Capital International Airport (ZBAA)

Arrival

Time 2026-05-06 10:22
Airport Vnukovo International Airport (UUWW)
Time Latitude Longitude Altitude Speed Heading
2026-05-06 09:43 55.83829 42.38202 37805 ft 454 kts 274°
2026-05-06 09:43 55.84401 42.27101 37803 ft 454 kts 274°
2026-05-06 09:44 55.84966 42.15934 37804 ft 455 kts 274°
2026-05-06 09:44 55.85530 42.04549 37801 ft 466 kts 274°
2026-05-06 09:45 55.86091 41.93016 37808 ft 468 kts 274°
2026-05-06 09:45 55.86634 41.81480 37804 ft 467 kts 273°
2026-05-06 09:46 55.86552 41.69941 37807 ft 466 kts 267°
2026-05-06 09:46 55.86225 41.58403 37806 ft 467 kts 266°
2026-05-06 09:47 55.85854 41.46873 37812 ft 467 kts 266°
2026-05-06 09:47 55.85479 41.35340 37816 ft 467 kts 266°
2026-05-06 09:48 55.85102 41.23813 37817 ft 467 kts 266°
2026-05-06 09:48 55.84716 41.12269 37820 ft 467 kts 266°
2026-05-06 09:49 55.84320 41.00735 37825 ft 467 kts 266°
2026-05-06 09:49 55.83912 40.89209 37824 ft 467 kts 266°
2026-05-06 09:50 55.83497 40.77774 37829 ft 467 kts 265°
2026-05-06 09:50 55.83068 40.66244 37835 ft 467 kts 265°
2026-05-06 09:51 55.82628 40.54791 37675 ft 457 kts 265°
2026-05-06 09:51 55.82399 40.49193 37133 ft 452 kts 265°
2026-05-06 09:51 55.82170 40.43626 36453 ft 451 kts 265°
2026-05-06 09:52 55.81939 40.38071 35738 ft 450 kts 265°
2026-05-06 09:52 55.81708 40.32525 35011 ft 451 kts 265°
2026-05-06 09:52 55.81473 40.26964 34270 ft 451 kts 265°
2026-05-06 09:52 55.81238 40.21430 33875 ft 444 kts 265°
2026-05-06 09:53 55.81011 40.16115 33314 ft 422 kts 264°
2026-05-06 09:53 55.80789 40.10995 32325 ft 411 kts 264°
2026-05-06 09:53 55.80569 40.05971 31264 ft 403 kts 264°
2026-05-06 09:53 55.80351 40.01048 30259 ft 396 kts 264°
2026-05-06 09:54 55.80135 39.96208 29144 ft 390 kts 264°
2026-05-06 09:54 55.79919 39.91442 28079 ft 383 kts 264°
2026-05-06 09:54 55.79705 39.86735 27498 ft 381 kts 264°
2026-05-06 09:54 55.79490 39.82035 27350 ft 383 kts 264°
2026-05-06 09:55 55.79255 39.77357 27341 ft 379 kts 263°
2026-05-06 09:55 55.78939 39.72679 27342 ft 388 kts 262°
2026-05-06 09:55 55.78595 39.67797 27335 ft 407 kts 262°
2026-05-06 09:55 55.78242 39.62691 27333 ft 426 kts 262°
2026-05-06 09:56 55.77878 39.57366 27332 ft 443 kts 263°
2026-05-06 09:56 55.77501 39.51837 27332 ft 459 kts 263°
2026-05-06 09:56 55.77113 39.46155 27335 ft 466 kts 263°
2026-05-06 09:56 55.76723 39.40459 27337 ft 458 kts 263°
2026-05-06 09:57 55.76346 39.34958 27249 ft 441 kts 263°
2026-05-06 09:57 55.75973 39.29641 26993 ft 428 kts 262°
2026-05-06 09:57 55.75608 39.24472 26738 ft 417 kts 263°
2026-05-06 09:57 55.75249 39.19435 26495 ft 406 kts 263°
2026-05-06 09:58 55.74900 39.14539 26282 ft 395 kts 263°
2026-05-06 09:58 55.74557 39.09763 26060 ft 384 kts 263°
2026-05-06 09:58 55.74223 39.05130 25883 ft 373 kts 263°
2026-05-06 09:58 55.73897 39.00621 25848 ft 366 kts 263°
2026-05-06 09:59 55.73572 38.96149 25843 ft 366 kts 263°
2026-05-06 09:59 55.73245 38.91672 25829 ft 365 kts 263°
2026-05-06 09:59 55.72911 38.87240 25430 ft 361 kts 262°
2026-05-06 09:59 55.72566 38.82833 24922 ft 361 kts 262°
2026-05-06 10:00 55.72217 38.78411 24204 ft 366 kts 262°
2026-05-06 10:00 55.71861 38.73886 23330 ft 375 kts 262°
2026-05-06 10:00 55.71496 38.69247 22301 ft 384 kts 262°
2026-05-06 10:00 55.71138 38.64554 21391 ft 389 kts 263°
2026-05-06 10:01 55.70783 38.59822 21056 ft 379 kts 263°
2026-05-06 10:01 55.70481 38.55839 20851 ft 369 kts 263°
2026-05-06 10:01 55.70149 38.51462 20621 ft 358 kts 263°
2026-05-06 10:01 55.69820 38.47161 20419 ft 347 kts 263°
2026-05-06 10:02 55.69502 38.42983 20131 ft 339 kts 263°
2026-05-06 10:02 55.69189 38.38884 19898 ft 333 kts 263°
2026-05-06 10:02 55.68876 38.34824 19857 ft 333 kts 263°
2026-05-06 10:02 55.68561 38.30751 19865 ft 334 kts 262°
2026-05-06 10:03 55.68243 38.26669 19863 ft 334 kts 263°
2026-05-06 10:03 55.67927 38.22601 19854 ft 334 kts 263°
2026-05-06 10:03 55.67611 38.18518 19862 ft 334 kts 262°
2026-05-06 10:03 55.67282 38.14452 19853 ft 334 kts 262°
2026-05-06 10:04 55.66947 38.10376 19855 ft 334 kts 262°
2026-05-06 10:04 55.66611 38.06304 19860 ft 334 kts 262°
2026-05-06 10:04 55.66277 38.02235 19861 ft 334 kts 262°
2026-05-06 10:04 55.65950 37.98261 19852 ft 334 kts 262°
2026-05-06 10:05 55.65616 37.94214 19862 ft 334 kts 262°
2026-05-06 10:05 55.65284 37.90207 19861 ft 322 kts 262°
2026-05-06 10:05 55.64796 37.86426 19867 ft 311 kts 253°
2026-05-06 10:05 55.63961 37.82747 19848 ft 336 kts 244°
2026-05-06 10:06 55.62540 37.79242 19840 ft 368 kts 227°
2026-05-06 10:06 55.60349 37.76574 19839 ft 398 kts 208°
2026-05-06 10:06 55.57722 37.75060 19305 ft 398 kts 197°
2026-05-06 10:06 55.54987 37.73999 18323 ft 406 kts 195°
2026-05-06 10:07 55.52249 37.72943 17434 ft 409 kts 196°
2026-05-06 10:07 55.49485 37.71826 16697 ft 406 kts 197°
2026-05-06 10:07 55.46757 37.70689 16005 ft 402 kts 197°
2026-05-06 10:07 55.44049 37.69539 15333 ft 397 kts 197°
2026-05-06 10:08 55.41375 37.68392 14664 ft 393 kts 197°
2026-05-06 10:08 55.38728 37.67253 14024 ft 389 kts 197°
2026-05-06 10:08 55.36179 37.66159 12918 ft 369 kts 198°
2026-05-06 10:08 55.33702 37.65092 11273 ft 365 kts 198°
2026-05-06 10:09 55.31262 37.63983 9770 ft 359 kts 201°
2026-05-06 10:09 55.29043 37.62304 8768 ft 334 kts 214°
2026-05-06 10:09 55.27297 37.59936 8225 ft 302 kts 227°
2026-05-06 10:09 55.26055 37.57196 7792 ft 275 kts 242°
2026-05-06 10:10 55.25359 37.54202 7185 ft 261 kts 259°
2026-05-06 10:10 55.25290 37.52182 6944 ft 249 kts 274°
2026-05-06 10:10 55.25794 37.49399 6626 ft 236 kts 298°
2026-05-06 10:10 55.26753 37.47122 6170 ft 230 kts 306°
2026-05-06 10:11 55.27771 37.45017 5902 ft 223 kts 307°
2026-05-06 10:11 55.28733 37.43054 5875 ft 204 kts 307°
2026-05-06 10:11 55.29638 37.41216 5871 ft 194 kts 307°
2026-05-06 10:11 55.30523 37.39479 5869 ft 190 kts 311°
2026-05-06 10:12 55.31623 37.38149 5876 ft 196 kts 330°
2026-05-06 10:12 55.32985 37.37773 5882 ft 206 kts
2026-05-06 10:12 55.34399 37.38270 5860 ft 208 kts
2026-05-06 10:12 55.35805 37.38953 5865 ft 210 kts 10°
2026-05-06 10:13 55.37220 37.39659 5862 ft 211 kts 10°
2026-05-06 10:13 55.38618 37.40356 5844 ft 210 kts
2026-05-06 10:13 55.40021 37.41042 5594 ft 210 kts
2026-05-06 10:13 55.41425 37.41718 5363 ft 208 kts
2026-05-06 10:14 55.42800 37.42384 5230 ft 201 kts
2026-05-06 10:14 55.44103 37.43015 5197 ft 187 kts
2026-05-06 10:14 55.45318 37.43597 5174 ft 175 kts
2026-05-06 10:14 55.46471 37.44150 4971 ft 170 kts
2026-05-06 10:15 55.47619 37.44699 4848 ft 170 kts
2026-05-06 10:15 55.48740 37.45242 4553 ft 167 kts
2026-05-06 10:15 55.49862 37.45780 4305 ft 167 kts
2026-05-06 10:15 55.50983 37.46317 4219 ft 166 kts
2026-05-06 10:16 55.52093 37.46854 4064 ft 165 kts
2026-05-06 10:16 55.53198 37.47380 3904 ft 164 kts
2026-05-06 10:16 55.54299 37.47905 3880 ft 165 kts
2026-05-06 10:16 55.55406 37.48454 3888 ft 165 kts
2026-05-06 10:17 55.56519 37.48997 3812 ft 166 kts
2026-05-06 10:17 55.57630 37.49540 3759 ft 165 kts
2026-05-06 10:17 55.58739 37.50007 3500 ft 162 kts
2026-05-06 10:17 55.59820 37.49870 3198 ft 151 kts 336°
2026-05-06 10:18 55.60792 37.49244 3022 ft 148 kts 330°
2026-05-06 10:18 55.61744 37.48561 2896 ft 147 kts 330°
2026-05-06 10:18 55.62657 37.47801 2577 ft 143 kts 321°
2026-05-06 10:18 55.63280 37.46493 2352 ft 143 kts 290°
2026-05-06 10:19 55.63353 37.44850 2240 ft 130 kts 259°
2026-05-06 10:19 55.63033 37.43397 2207 ft 124 kts 248°
2026-05-06 10:19 55.62711 37.42016 2241 ft 122 kts 252°
2026-05-06 10:19 55.62390 37.40644 2109 ft 117 kts 250°
2026-05-06 10:20 55.62075 37.39339 1912 ft 116 kts 251°
2026-05-06 10:20 55.61776 37.37969 1705 ft 123 kts 251°
2026-05-06 10:20 55.61479 37.36533 1529 ft 123 kts 253°
2026-05-06 10:20 55.61146 37.35148 1456 ft 122 kts 252°
2026-05-06 10:21 55.60816 37.33791 1351 ft 118 kts 252°
2026-05-06 10:21 55.60574 37.32423 1208 ft 118 kts 250°
2026-05-06 10:21 55.60277 37.31193 1154 ft 127 kts 249°
2026-05-06 10:21 55.59942 37.29706 848 ft 135 kts 253°
2026-05-06 10:22 55.59600 37.28139 720 ft 134 kts 250°
2026-05-06 10:22 55.59298 37.26782 675 ft 90 kts 248°
2026-05-06 10:22 55.59157 37.26154 675 ft 19 kts 248°
2026-05-06 10:22 55.59117 37.25973 675 ft 23 kts 248°
2026-05-06 10:23 55.59086 37.25828 675 ft 2 kts 274°
2026-05-06 10:23 55.59113 37.25778 675 ft 4 kts
2026-05-06 10:23 55.59209 37.25863 675 ft 26 kts 26°
2026-05-06 10:23 55.59367 37.26055 675 ft 31 kts 68°
2026-05-06 10:24 55.59460 37.26471 675 ft 42 kts 68°
2026-05-06 10:24 55.59612 37.26963 675 ft 49 kts 47°
2026-05-06 10:24 55.59856 37.27414 683 ft 43 kts 46°
2026-05-06 10:24 55.59998 37.27705 678 ft 29 kts 44°
2026-05-06 10:25 55.60116 37.27915 680 ft 10 kts 75°
2026-05-06 10:25 55.60094 37.28003 679 ft 11 kts 121°
2026-05-06 10:25 55.60074 37.28159 681 ft 16 kts 90°
2026-05-06 10:25 55.60092 37.28394 686 ft 22 kts 72°
2026-05-06 10:26 55.60187 37.28599 679 ft 15 kts 44°
2026-05-06 10:26 55.60240 37.28657 683 ft 0 kts 17°
2026-05-06 10:26 55.60250 37.28654 679 ft 5 kts 359°
2026-05-06 10:27 55.60289 37.28674 681 ft 4 kts 52°
2026-05-06 10:27 55.60292 37.28732 679 ft 3 kts 116°
2026-05-06 10:27 55.60264 37.28749 679 ft 6 kts 173°
2026-05-06 10:27 55.60231 37.28692 678 ft 16 kts 229°
2026-05-06 10:28 55.60154 37.28543 680 ft 0 kts 227°
2026-05-06 10:28 55.60101 37.28440 680 ft 15 kts 238°
2026-05-06 10:28 55.60100 37.28405 679 ft 4 kts 278°
2026-05-06 10:28 55.60122 37.28380 683 ft 4 kts 349°
2026-05-06 10:29 55.60170 37.28376 681 ft 0 kts 356°
2026-05-06 10:29 55.60176 37.28375 682 ft 0 kts 357°